Time,TemperatureF,DewpointF,PressureIn,WindDirection,WindDirectionDegrees,WindSpeedMPH,WindSpeedGustMPH,Humidity,HourlyPrecipIn,Conditions,Clouds,dailyrainin,SoftwareType,DateUTC
2013-02-09 00:00:00,34.1,24.7,30.21,SW,220,2.0,9.0,68,0.00,,,0.02,VWS V14.01,2013-02-09 05:00:00,
2013-02-09 00:02:00,34.1,24.7,30.21,NW,316,1.0,9.0,68,0.00,,,0.00,VWS V14.01,2013-02-09 05:02:00,
2013-02-09 00:07:00,34.0,24.6,30.21,ENE,69,1.0,9.0,68,0.00,,,0.00,VWS V14.01,2013-02-09 05:07:00,
2013-02-09 00:12:00,33.8,23.7,30.21,WNW,288,1.0,9.0,66,0.00,,,0.00,VWS V14.01,2013-02-09 05:12:00,
2013-02-09 00:18:00,33.7,23.9,30.20,ESE,107,6.0,9.0,67,0.00,,,0.00,VWS V14.01,2013-02-09 05:18:00,
2013-02-09 00:23:00,33.5,23.7,30.20,East,85,2.0,9.0,67,0.00,,,0.00,VWS V14.01,2013-02-09 05:23:00,
2013-02-09 00:28:00,33.2,23.8,30.20,ESE,107,1.0,9.0,68,0.00,,,0.00,VWS V14.01,2013-02-09 05:28:00,
2013-02-09 00:33:00,33.1,24.0,30.21,ESE,108,0.0,9.0,69,0.00,,,0.00,VWS V14.01,2013-02-09 05:33:00,
2013-02-09 00:38:00,33.1,24.0,30.21,ESE,108,0.0,9.0,69,0.00,,,0.00,VWS V14.01,2013-02-09 05:38:00,
2013-02-09 00:43:00,33.2,24.1,30.21,ESE,108,0.0,9.0,69,0.00,,,0.00,VWS V14.01,2013-02-09 05:43:00,
2013-02-09 00:48:00,33.2,24.1,30.21,ESE,108,0.0,9.0,69,0.00,,,0.00,VWS V14.01,2013-02-09 05:48:00,
2013-02-09 00:53:00,33.5,24.1,30.21,ESE,108,0.0,9.0,68,0.00,,,0.00,VWS V14.01,2013-02-09 05:53:00,
2013-02-09 00:58:00,33.5,24.1,30.21,ESE,105,1.0,9.0,68,0.00,,,0.00,VWS V14.01,2013-02-09 05:58:00,
2013-02-09 01:03:00,33.5,23.7,30.21,NW,321,3.0,9.0,67,0.00,,,0.00,VWS V14.01,2013-02-09 06:03:00,
2013-02-09 01:08:00,33.4,23.6,30.21,NNW,327,0.0,9.0,67,0.00,,,0.00,VWS V14.01,2013-02-09 06:08:00,
2013-02-09 01:13:00,33.2,23.5,30.21,NNW,327,0.0,9.0,67,0.00,,,0.00,VWS V14.01,2013-02-09 06:13:00,
2013-02-09 01:18:00,33.1,23.4,30.18,NNW,336,0.0,9.0,67,0.00,,,0.00,VWS V14.01,2013-02-09 06:18:00,
2013-02-09 01:23:00,32.8,23.1,30.18,SW,228,0.0,9.0,67,0.00,,,0.00,VWS V14.01,2013-02-09 06:23:00,
2013-02-09 01:29:00,32.7,23.0,30.18,North,360,0.0,9.0,67,0.00,,,0.00,VWS V14.01,2013-02-09 06:29:00,
2013-02-09 01:34:00,32.4,23.0,30.18,ENE,76,0.0,9.0,68,0.00,,,0.00,VWS V14.01,2013-02-09 06:34:00,
2013-02-09 01:39:00,32.4,22.7,30.18,NE,37,3.0,9.0,67,0.00,,,0.00,VWS V14.01,2013-02-09 06:39:00,
2013-02-09 01:44:00,32.1,22.4,30.18,NNW,344,0.0,9.0,67,0.00,,,0.00,VWS V14.01,2013-02-09 06:44:00,
2013-02-09 01:49:00,32.1,22.8,30.18,North,355,3.0,9.0,68,0.00,,,0.00,VWS V14.01,2013-02-09 06:49:00,
2013-02-09 01:54:00,32.1,22.4,30.18,ENE,61,4.0,9.0,67,0.00,,,0.00,VWS V14.01,2013-02-09 06:54:00,
2013-02-09 01:59:00,32.2,22.1,30.18,West,268,2.0,9.0,66,0.00,,,0.00,VWS V14.01,2013-02-09 06:59:00,
2013-02-09 02:04:00,32.1,22.4,30.18,ENE,76,0.0,9.0,67,0.00,,,0.00,VWS V14.01,2013-02-09 07:04:00,
2013-02-09 02:09:00,32.1,22.4,30.18,NW,309,2.0,9.0,67,0.00,,,0.00,VWS V14.01,2013-02-09 07:09:00,
2013-02-09 02:14:00,31.9,22.2,30.18,ESE,119,3.0,9.0,67,0.00,,,0.00,VWS V14.01,2013-02-09 07:14:00,
2013-02-09 02:19:00,31.9,22.2,30.18,SSE,162,1.0,9.0,67,0.00,,,0.00,VWS V14.01,2013-02-09 07:19:00,
2013-02-09 02:24:00,31.8,22.5,30.18,SSE,163,0.0,9.0,68,0.00,,,0.00,VWS V14.01,2013-02-09 07:24:00,
2013-02-09 02:29:00,31.6,22.6,30.19,SSE,163,0.0,9.0,69,0.00,,,0.00,VWS V14.01,2013-02-09 07:29:00,
2013-02-09 02:34:00,31.3,22.7,30.19,SSE,163,0.0,9.0,70,0.00,,,0.00,VWS V14.01,2013-02-09 07:34:00,
2013-02-09 02:39:00,31.0,23.0,30.19,SSE,163,1.0,9.0,72,0.00,,,0.00,VWS V14.01,2013-02-09 07:39:00,
2013-02-09 02:44:00,30.7,22.4,30.20,SSE,165,0.0,9.0,71,0.00,,,0.00,VWS V14.01,2013-02-09 07:44:00,
2013-02-09 02:50:00,30.4,23.1,30.20,SSE,165,0.0,9.0,74,0.00,,,0.00,VWS V14.01,2013-02-09 07:50:00,
2013-02-09 02:55:00,30.1,22.8,30.20,SSE,164,0.0,9.0,74,0.00,,,0.00,VWS V14.01,2013-02-09 07:55:00,
2013-02-09 03:00:00,30.0,23.0,30.20,ESE,103,0.0,9.0,75,0.00,,,0.00,VWS V14.01,2013-02-09 08:00:00,
2013-02-09 03:05:00,30.1,22.5,30.20,WSW,243,0.0,9.0,73,0.00,,,0.00,VWS V14.01,2013-02-09 08:05:00,
2013-02-09 03:10:00,30.0,23.4,30.20,WSW,243,0.0,9.0,76,0.00,,,0.00,VWS V14.01,2013-02-09 08:10:00,
2013-02-09 03:15:00,29.7,23.4,30.20,WSW,243,0.0,9.0,77,0.00,,,0.00,VWS V14.01,2013-02-09 08:15:00,
2013-02-09 03:20:00,29.4,23.1,30.20,WSW,243,0.0,9.0,77,0.00,,,0.00,VWS V14.01,2013-02-09 08:20:00,
2013-02-09 03:25:00,29.1,22.8,30.20,WSW,242,0.0,9.0,77,0.00,,,0.00,VWS V14.01,2013-02-09 08:25:00,
2013-02-09 03:30:00,28.8,23.1,30.21,WSW,243,0.0,9.0,79,0.00,,,0.00,VWS V14.01,2013-02-09 08:30:00,
2013-02-09 03:35:00,28.7,23.0,30.21,WSW,243,0.0,9.0,79,0.00,,,0.00,VWS V14.01,2013-02-09 08:35:00,
2013-02-09 03:40:00,28.5,23.1,30.21,WSW,243,0.0,9.0,80,0.00,,,0.00,VWS V14.01,2013-02-09 08:40:00,
2013-02-09 03:45:00,28.4,23.0,30.22,WSW,243,0.0,9.0,80,0.00,,,0.00,VWS V14.01,2013-02-09 08:45:00,
2013-02-09 03:50:00,28.4,23.0,30.22,WSW,243,0.0,9.0,80,0.00,,,0.00,VWS V14.01,2013-02-09 08:50:00,
2013-02-09 03:55:00,28.2,23.1,30.22,WSW,243,1.0,9.0,81,0.00,,,0.00,VWS V14.01,2013-02-09 08:55:00,
2013-02-09 04:00:00,28.2,23.1,30.21,WSW,243,0.0,9.0,81,0.00,,,0.00,VWS V14.01,2013-02-09 09:00:00,
2013-02-09 04:05:00,28.1,23.0,30.21,WSW,243,0.0,9.0,81,0.00,,,0.00,VWS V14.01,2013-02-09 09:05:00,
2013-02-09 04:10:00,27.9,23.1,30.21,WSW,243,0.0,9.0,82,0.00,,,0.00,VWS V14.01,2013-02-09 09:10:00,
2013-02-09 04:15:00,27.9,23.1,30.22,SW,216,0.0,9.0,82,0.00,,,0.00,VWS V14.01,2013-02-09 09:15:00,
2013-02-09 04:20:00,27.8,23.0,30.22,SW,217,0.0,9.0,82,0.00,,,0.00,VWS V14.01,2013-02-09 09:20:00,
2013-02-09 04:26:00,27.8,23.0,30.22,SW,217,0.0,9.0,82,0.00,,,0.00,VWS V14.01,2013-02-09 09:26:00,
2013-02-09 04:31:00,27.6,22.5,30.24,SW,217,0.0,9.0,81,0.00,,,0.00,VWS V14.01,2013-02-09 09:31:00,
2013-02-09 04:36:00,27.5,22.7,30.24,SW,224,0.0,9.0,82,0.00,,,0.00,VWS V14.01,2013-02-09 09:36:00,
2013-02-09 04:41:00,27.5,22.7,30.24,North,350,0.0,9.0,82,0.00,,,0.00,VWS V14.01,2013-02-09 09:41:00,
2013-02-09 04:46:00,27.3,22.8,30.24,North,350,0.0,9.0,83,0.00,,,0.00,VWS V14.01,2013-02-09 09:46:00,
2013-02-09 04:51:00,27.3,22.8,30.24,North,350,0.0,9.0,83,0.00,,,0.00,VWS V14.01,2013-02-09 09:51:00,
2013-02-09 04:56:00,27.2,22.7,30.24,North,350,0.0,9.0,83,0.00,,,0.00,VWS V14.01,2013-02-09 09:56:00,
2013-02-09 05:01:00,27.2,22.7,30.25,North,350,0.0,9.0,83,0.00,,,0.00,VWS V14.01,2013-02-09 10:01:00,
2013-02-09 05:06:00,27.2,22.7,30.25,SW,234,1.0,9.0,83,0.00,,,0.00,VWS V14.01,2013-02-09 10:06:00,
2013-02-09 05:11:00,27.9,22.5,30.25,ESE,121,0.0,9.0,80,0.00,,,0.00,VWS V14.01,2013-02-09 10:11:00,
2013-02-09 05:16:00,28.4,22.4,30.26,ESE,121,0.0,9.0,78,0.00,,,0.00,VWS V14.01,2013-02-09 10:16:00,
2013-02-09 05:21:00,28.5,22.8,30.26,ESE,121,0.0,9.0,79,0.00,,,0.00,VWS V14.01,2013-02-09 10:21:00,
2013-02-09 05:26:00,28.4,22.7,30.26,ESE,121,0.0,9.0,79,0.00,,,0.00,VWS V14.01,2013-02-09 10:26:00,
2013-02-09 05:31:00,28.1,22.4,30.26,ENE,78,0.0,9.0,79,0.00,,,0.00,VWS V14.01,2013-02-09 10:31:00,
2013-02-09 05:36:00,28.1,22.7,30.26,ENE,70,0.0,9.0,80,0.00,,,0.00,VWS V14.01,2013-02-09 10:36:00,
2013-02-09 05:41:00,28.2,22.2,30.26,NE,36,0.0,9.0,78,0.00,,,0.00,VWS V14.01,2013-02-09 10:41:00,
2013-02-09 05:46:00,28.2,22.5,30.26,NE,36,0.0,9.0,79,0.00,,,0.00,VWS V14.01,2013-02-09 10:46:00,
2013-02-09 05:52:00,28.1,22.7,30.26,NE,36,2.0,9.0,80,0.00,,,0.00,VWS V14.01,2013-02-09 10:52:00,
2013-02-09 05:57:00,27.9,22.5,30.26,NE,36,0.0,9.0,80,0.00,,,0.00,VWS V14.01,2013-02-09 10:57:00,
2013-02-09 06:02:00,27.8,22.4,30.27,NE,36,0.0,9.0,80,0.00,,,0.00,VWS V14.01,2013-02-09 11:02:00,
2013-02-09 06:07:00,27.6,22.5,30.27,NE,36,0.0,9.0,81,0.00,,,0.00,VWS V14.01,2013-02-09 11:07:00,
2013-02-09 06:12:00,27.5,22.1,30.27,North,5,0.0,9.0,80,0.00,,,0.00,VWS V14.01,2013-02-09 11:12:00,
2013-02-09 06:17:00,27.3,22.2,30.28,North,5,0.0,9.0,81,0.00,,,0.00,VWS V14.01,2013-02-09 11:17:00,
2013-02-09 06:22:00,27.2,22.1,30.28,North,5,0.0,9.0,81,0.00,,,0.00,VWS V14.01,2013-02-09 11:22:00,
2013-02-09 06:27:00,27.2,22.7,30.28,North,5,1.0,9.0,83,0.00,,,0.00,VWS V14.01,2013-02-09 11:27:00,
2013-02-09 06:32:00,27.0,22.5,30.28,North,5,0.0,9.0,83,0.00,,,0.00,VWS V14.01,2013-02-09 11:32:00,
2013-02-09 06:37:00,26.9,22.4,30.28,North,5,0.0,9.0,83,0.00,,,0.00,VWS V14.01,2013-02-09 11:37:00,
2013-02-09 06:42:00,26.9,22.4,30.28,North,5,0.0,9.0,83,0.00,,,0.00,VWS V14.01,2013-02-09 11:42:00,
2013-02-09 06:47:00,26.7,22.2,30.28,North,5,1.0,9.0,83,0.00,,,0.00,VWS V14.01,2013-02-09 11:47:00,
2013-02-09 06:52:00,26.4,22.0,30.28,North,5,0.0,9.0,83,0.00,,,0.00,VWS V14.01,2013-02-09 11:52:00,
2013-02-09 06:57:00,26.4,22.0,30.28,North,5,1.0,9.0,83,0.00,,,0.00,VWS V14.01,2013-02-09 11:57:00,
2013-02-09 07:02:00,26.3,21.9,30.30,North,5,0.0,9.0,83,0.00,,,0.00,VWS V14.01,2013-02-09 12:02:00,
2013-02-09 07:07:00,26.0,21.6,30.30,North,5,1.0,9.0,83,0.00,,,0.00,VWS V14.01,2013-02-09 12:07:00,
2013-02-09 07:13:00,25.8,21.6,30.30,North,5,0.0,9.0,84,0.00,,,0.00,VWS V14.01,2013-02-09 12:13:00,
2013-02-09 07:18:00,25.7,21.3,30.30,North,5,0.0,9.0,83,0.00,,,0.00,VWS V14.01,2013-02-09 12:18:00,
2013-02-09 07:23:00,25.6,21.5,30.30,North,5,0.0,9.0,84,0.00,,,0.00,VWS V14.01,2013-02-09 12:23:00,
2013-02-09 07:28:00,25.4,21.2,30.30,North,5,0.0,9.0,84,0.00,,,0.00,VWS V14.01,2013-02-09 12:28:00,
2013-02-09 07:33:00,25.4,21.2,30.30,North,5,0.0,9.0,84,0.00,,,0.00,VWS V14.01,2013-02-09 12:33:00,
2013-02-09 07:38:00,25.3,21.1,30.30,North,5,0.0,9.0,84,0.00,,,0.00,VWS V14.01,2013-02-09 12:38:00,
2013-02-09 07:43:00,25.3,21.1,30.30,North,5,0.0,9.0,84,0.00,,,0.00,VWS V14.01,2013-02-09 12:43:00,
2013-02-09 07:48:00,25.3,21.1,30.31,North,5,0.0,9.0,84,0.00,,,0.00,VWS V14.01,2013-02-09 12:48:00,
2013-02-09 07:53:00,25.1,21.0,30.31,North,5,0.0,9.0,84,0.00,,,0.00,VWS V14.01,2013-02-09 12:53:00,
2013-02-09 07:58:00,25.0,20.9,30.31,North,5,0.0,9.0,84,0.00,,,0.00,VWS V14.01,2013-02-09 12:58:00,
2013-02-09 08:03:00,25.0,21.1,30.32,North,5,0.0,9.0,85,0.00,,,0.00,VWS V14.01,2013-02-09 13:03:00,
2013-02-09 08:08:00,25.0,21.1,30.32,North,5,0.0,9.0,85,0.00,,,0.00,VWS V14.01,2013-02-09 13:08:00,
2013-02-09 08:13:00,25.1,21.2,30.32,North,5,0.0,9.0,85,0.00,,,0.00,VWS V14.01,2013-02-09 13:13:00,
2013-02-09 08:18:00,25.3,21.7,30.33,North,5,0.0,9.0,86,0.00,,,0.00,VWS V14.01,2013-02-09 13:18:00,
2013-02-09 08:23:00,25.3,21.4,30.33,North,5,0.0,9.0,85,0.00,,,0.00,VWS V14.01,2013-02-09 13:23:00,
2013-02-09 08:29:00,25.4,21.5,30.33,North,5,0.0,9.0,85,0.00,,,0.00,VWS V14.01,2013-02-09 13:29:00,
2013-02-09 08:34:00,25.8,21.9,30.32,North,5,0.0,9.0,85,0.00,,,0.00,VWS V14.01,2013-02-09 13:34:00,
2013-02-09 08:39:00,26.3,21.9,30.32,ENE,62,0.0,9.0,83,0.00,,,0.00,VWS V14.01,2013-02-09 13:39:00,
2013-02-09 08:44:00,26.9,21.9,30.32,ENE,62,0.0,9.0,81,0.00,,,0.00,VWS V14.01,2013-02-09 13:44:00,
2013-02-09 08:49:00,27.3,22.0,30.33,ENE,62,0.0,9.0,80,0.00,,,0.00,VWS V14.01,2013-02-09 13:49:00,
2013-02-09 08:54:00,27.8,21.9,30.33,ENE,62,0.0,9.0,78,0.00,,,0.00,VWS V14.01,2013-02-09 13:54:00,
2013-02-09 08:59:00,28.2,21.6,30.33,ENE,62,0.0,9.0,76,0.00,,,0.00,VWS V14.01,2013-02-09 13:59:00,
2013-02-09 09:04:00,28.7,21.5,30.33,ENE,62,0.0,9.0,74,0.00,,,0.00,VWS V14.01,2013-02-09 14:04:00,
2013-02-09 09:09:00,29.0,22.1,30.33,ENE,62,0.0,9.0,75,0.00,,,0.00,VWS V14.01,2013-02-09 14:09:00,
2013-02-09 09:14:00,29.1,21.5,30.33,ENE,62,0.0,9.0,73,0.00,,,0.00,VWS V14.01,2013-02-09 14:14:00,
2013-02-09 09:19:00,29.5,21.6,30.33,ENE,62,0.0,9.0,72,0.00,,,0.00,VWS V14.01,2013-02-09 14:19:00,
2013-02-09 09:24:00,29.8,21.2,30.33,ENE,62,0.0,9.0,70,0.00,,,0.00,VWS V14.01,2013-02-09 14:24:00,
2013-02-09 09:29:00,30.1,21.5,30.32,ENE,62,0.0,9.0,70,0.00,,,0.00,VWS V14.01,2013-02-09 14:29:00,
2013-02-09 09:34:00,30.4,21.1,30.32,ENE,62,0.0,9.0,68,0.00,,,0.00,VWS V14.01,2013-02-09 14:34:00,
2013-02-09 09:39:00,30.7,21.8,30.32,ENE,62,0.0,9.0,69,0.00,,,0.00,VWS V14.01,2013-02-09 14:39:00,
2013-02-09 09:44:00,30.9,20.9,30.32,ENE,62,0.0,9.0,66,0.00,,,0.00,VWS V14.01,2013-02-09 14:44:00,
2013-02-09 09:49:00,31.2,21.5,30.32,ENE,62,0.0,9.0,67,0.00,,,0.00,VWS V14.01,2013-02-09 14:49:00,
2013-02-09 09:55:00,31.6,20.8,30.32,ENE,62,0.0,9.0,64,0.00,,,0.00,VWS V14.01,2013-02-09 14:55:00,
2013-02-09 10:00:00,32.1,21.3,30.32,ENE,62,0.0,9.0,64,0.00,,,0.00,VWS V14.01,2013-02-09 15:00:00,
2013-02-09 10:05:00,32.5,20.6,30.32,ENE,62,0.0,9.0,61,0.00,,,0.00,VWS V14.01,2013-02-09 15:05:00,
2013-02-09 10:10:00,32.8,20.5,30.32,ENE,62,0.0,9.0,60,0.00,,,0.00,VWS V14.01,2013-02-09 15:10:00,
2013-02-09 10:15:00,33.1,20.7,30.32,ENE,62,0.0,9.0,60,0.00,,,0.00,VWS V14.01,2013-02-09 15:15:00,
2013-02-09 10:20:00,33.4,21.4,30.32,North,5,0.0,9.0,61,0.00,,,0.00,VWS V14.01,2013-02-09 15:20:00,
2013-02-09 10:25:00,33.8,21.8,30.32,North,5,0.0,9.0,61,0.00,,,0.00,VWS V14.01,2013-02-09 15:25:00,
2013-02-09 10:30:00,34.1,21.3,30.32,WSW,256,0.0,9.0,59,0.00,,,0.00,VWS V14.01,2013-02-09 15:30:00,
2013-02-09 10:35:00,34.3,21.1,30.32,WSW,256,0.0,9.0,58,0.00,,,0.00,VWS V14.01,2013-02-09 15:35:00,
2013-02-09 10:40:00,34.7,21.5,30.32,WSW,256,0.0,9.0,58,0.00,,,0.00,VWS V14.01,2013-02-09 15:40:00,
2013-02-09 10:45:00,34.9,21.6,30.32,NW,326,0.0,9.0,58,0.00,,,0.00,VWS V14.01,2013-02-09 15:45:00,
2013-02-09 10:50:00,35.3,22.0,30.32,NW,315,0.0,9.0,58,0.00,,,0.00,VWS V14.01,2013-02-09 15:50:00,
2013-02-09 10:55:00,35.8,21.6,30.32,West,263,4.0,9.0,56,0.00,,,0.00,VWS V14.01,2013-02-09 15:55:00,
2013-02-09 11:00:00,35.5,21.8,30.32,West,264,0.0,9.0,57,0.00,,,0.00,VWS V14.01,2013-02-09 16:00:00,
2013-02-09 11:06:00,35.6,21.5,30.32,West,264,0.0,9.0,56,0.00,,,0.00,VWS V14.01,2013-02-09 16:06:00,
2013-02-09 11:11:00,35.8,21.6,30.32,WSW,248,0.0,9.0,56,0.00,,,0.00,VWS V14.01,2013-02-09 16:11:00,
2013-02-09 11:16:00,36.2,21.2,30.32,SE,125,0.0,9.0,54,0.00,,,0.00,VWS V14.01,2013-02-09 16:16:00,
2013-02-09 11:21:00,36.6,21.1,30.32,ESE,120,1.0,9.0,53,0.00,,,0.00,VWS V14.01,2013-02-09 16:21:00,
2013-02-09 11:26:00,37.0,21.5,30.32,NNE,24,4.0,9.0,53,0.00,,,0.00,VWS V14.01,2013-02-09 16:26:00,
2013-02-09 11:31:00,37.5,21.9,30.31,WSW,246,0.0,9.0,53,0.00,,,0.00,VWS V14.01,2013-02-09 16:31:00,
2013-02-09 11:36:00,37.6,21.1,30.31,East,97,0.0,9.0,51,0.00,,,0.00,VWS V14.01,2013-02-09 16:36:00,
2013-02-09 11:41:00,37.6,21.1,30.31,West,264,1.0,9.0,51,0.00,,,0.00,VWS V14.01,2013-02-09 16:41:00,
2013-02-09 11:46:00,38.0,20.5,30.30,NW,315,4.0,9.0,49,0.00,,,0.00,VWS V14.01,2013-02-09 16:46:00,
2013-02-09 11:51:00,38.9,21.9,30.30,NW,304,1.0,9.0,50,0.00,,,0.00,VWS V14.01,2013-02-09 16:51:00,
2013-02-09 11:56:00,39.5,21.0,30.30,South,169,0.0,9.0,47,0.00,,,0.00,VWS V14.01,2013-02-09 16:56:00,
2013-02-09 12:01:00,39.5,20.5,30.30,WSW,249,2.0,9.0,46,0.00,,,0.00,VWS V14.01,2013-02-09 17:01:00,
2013-02-09 12:06:00,39.1,20.1,30.30,East,82,1.0,9.0,46,0.00,,,0.00,VWS V14.01,2013-02-09 17:06:00,
2013-02-09 12:11:00,38.8,18.8,30.30,NE,46,0.0,9.0,44,0.00,,,0.00,VWS V14.01,2013-02-09 17:11:00,
2013-02-09 12:16:00,39.3,19.8,30.30,West,262,3.0,9.0,45,0.00,,,0.00,VWS V14.01,2013-02-09 17:16:00,
2013-02-09 12:22:00,39.9,20.3,30.30,WNW,292,2.0,9.0,45,0.00,,,0.00,VWS V14.01,2013-02-09 17:22:00,
2013-02-09 12:27:00,40.1,19.4,30.30,West,279,2.0,9.0,43,0.00,,,0.00,VWS V14.01,2013-02-09 17:27:00,
2013-02-09 12:32:00,40.3,20.7,30.29,West,279,2.0,9.0,45,0.00,,,0.00,VWS V14.01,2013-02-09 17:32:00,
2013-02-09 12:37:00,40.8,20.0,30.29,WSW,244,3.0,9.0,43,0.00,,,0.00,VWS V14.01,2013-02-09 17:37:00,
2013-02-09 12:42:00,41.2,18.7,30.29,SW,232,0.0,9.0,40,0.00,,,0.00,VWS V14.01,2013-02-09 17:42:00,
2013-02-09 12:47:00,41.8,19.8,30.28,WNW,298,0.0,9.0,41,0.00,,,0.00,VWS V14.01,2013-02-09 17:47:00,
2013-02-09 12:52:00,42.2,18.4,30.28,SW,234,3.0,9.0,38,0.00,,,0.00,VWS V14.01,2013-02-09 17:52:00,
2013-02-09 12:57:00,42.2,20.2,30.28,WNW,284,1.0,9.0,41,0.00,,,0.00,VWS V14.01,2013-02-09 17:57:00,
2013-02-09 13:02:00,42.9,18.4,30.28,North,355,4.0,9.0,37,0.00,,,0.00,VWS V14.01,2013-02-09 18:02:00,
2013-02-09 13:07:00,43.3,19.4,30.28,NW,304,5.0,9.0,38,0.00,,,0.00,VWS V14.01,2013-02-09 18:07:00,
2013-02-09 13:12:00,43.9,18.7,30.28,WSW,248,0.0,9.0,36,0.00,,,0.00,VWS V14.01,2013-02-09 18:12:00,
2013-02-09 13:17:00,44.1,18.2,30.27,West,267,0.0,9.0,35,0.00,,,0.00,VWS V14.01,2013-02-09 18:17:00,
2013-02-09 13:22:00,44.5,18.6,30.27,West,259,2.0,9.0,35,0.00,,,0.00,VWS V14.01,2013-02-09 18:22:00,
2013-02-09 13:27:00,44.8,18.2,30.27,SSW,197,2.0,9.0,34,0.00,,,0.00,VWS V14.01,2013-02-09 18:27:00,
2013-02-09 13:33:00,45.2,17.8,30.27,NNW,337,4.0,9.0,33,0.00,,,0.00,VWS V14.01,2013-02-09 18:33:00,
2013-02-09 13:38:00,45.4,18.0,30.27,West,267,5.0,9.0,33,0.00,,,0.00,VWS V14.01,2013-02-09 18:38:00,
2013-02-09 13:43:00,45.4,20.7,30.27,NW,320,4.0,9.0,37,0.00,,,0.00,VWS V14.01,2013-02-09 18:43:00,
2013-02-09 13:48:00,45.5,16.6,30.27,WNW,288,2.0,9.0,31,0.00,,,0.00,VWS V14.01,2013-02-09 18:48:00,
2013-02-09 13:53:00,46.0,18.5,30.27,WNW,296,1.0,9.0,33,0.00,,,0.00,VWS V14.01,2013-02-09 18:53:00,
2013-02-09 13:58:00,46.2,17.2,30.27,WNW,288,2.0,9.0,31,0.00,,,0.00,VWS V14.01,2013-02-09 18:58:00,
2013-02-09 14:03:00,46.1,17.2,30.26,West,260,2.0,9.0,31,0.00,,,0.00,VWS V14.01,2013-02-09 19:03:00,
2013-02-09 14:08:00,46.0,18.5,30.26,West,260,5.0,9.0,33,0.00,,,0.00,VWS V14.01,2013-02-09 19:08:00,
2013-02-09 14:13:00,46.0,17.1,30.26,West,279,2.0,9.0,31,0.00,,,0.00,VWS V14.01,2013-02-09 19:13:00,
2013-02-09 14:18:00,46.1,17.9,30.27,WSW,255,3.0,9.0,32,0.00,,,0.00,VWS V14.01,2013-02-09 19:18:00,
2013-02-09 14:23:00,46.1,19.3,30.27,NNW,331,2.0,9.0,34,0.00,,,0.00,VWS V14.01,2013-02-09 19:23:00,
2013-02-09 14:28:00,46.7,19.8,30.27,WNW,294,0.0,9.0,34,0.00,,,0.00,VWS V14.01,2013-02-09 19:28:00,
2013-02-09 14:33:00,46.7,16.9,30.26,ENE,61,0.0,9.0,30,0.00,,,0.00,VWS V14.01,2013-02-09 19:33:00,
2013-02-09 14:38:00,46.4,16.7,30.26,ESE,118,3.0,9.0,30,0.00,,,0.00,VWS V14.01,2013-02-09 19:38:00,
2013-02-09 14:44:00,45.8,16.1,30.26,North,11,1.0,9.0,30,0.00,,,0.00,VWS V14.01,2013-02-09 19:44:00,
2013-02-09 14:49:00,46.4,15.9,30.25,South,190,3.0,9.0,29,0.00,,,0.00,VWS V14.01,2013-02-09 19:49:00,
2013-02-09 14:54:00,46.2,16.5,30.25,WNW,297,0.0,9.0,30,0.00,,,0.00,VWS V14.01,2013-02-09 19:54:00,
2013-02-09 14:59:00,47.0,15.6,30.25,North,351,1.0,9.0,28,0.00,,,0.00,VWS V14.01,2013-02-09 19:59:00,
2013-02-09 15:04:00,47.3,15.9,30.25,North,360,3.0,9.0,28,0.00,,,0.00,VWS V14.01,2013-02-09 20:04:00,
2013-02-09 15:09:00,47.4,15.1,30.25,NW,318,2.0,9.0,27,0.00,,,0.00,VWS V14.01,2013-02-09 20:09:00,
2013-02-09 15:14:00,48.3,16.7,30.25,West,275,3.0,9.0,28,0.00,,,0.00,VWS V14.01,2013-02-09 20:14:00,
2013-02-09 15:19:00,48.8,17.2,30.25,NW,325,1.0,9.0,28,0.00,,,0.00,VWS V14.01,2013-02-09 20:19:00,
2013-02-09 15:24:00,48.8,16.3,30.25,SW,232,0.0,9.0,27,0.00,,,0.00,VWS V14.01,2013-02-09 20:24:00,
2013-02-09 15:29:00,49.2,15.8,30.25,NE,40,0.0,9.0,26,0.00,,,0.00,VWS V14.01,2013-02-09 20:29:00,
2013-02-09 15:34:00,49.5,15.1,30.25,WNW,303,2.0,9.0,25,0.00,,,0.00,VWS V14.01,2013-02-09 20:34:00,
2013-02-09 15:39:00,49.4,16.0,30.25,NNW,332,2.0,9.0,26,0.00,,,0.00,VWS V14.01,2013-02-09 20:39:00,
2013-02-09 15:44:00,49.4,16.0,30.25,North,5,2.0,9.0,26,0.00,,,0.00,VWS V14.01,2013-02-09 20:44:00,
2013-02-09 15:49:00,49.2,15.8,30.25,West,270,0.0,9.0,26,0.00,,,0.00,VWS V14.01,2013-02-09 20:49:00,
2013-02-09 15:54:00,49.6,17.0,30.25,ENE,59,0.0,9.0,27,0.00,,,0.00,VWS V14.01,2013-02-09 20:54:00,
2013-02-09 16:00:00,49.2,16.7,30.25,NNE,12,1.0,9.0,27,0.00,,,0.00,VWS V14.01,2013-02-09 21:00:00,
2013-02-09 16:05:00,49.1,16.6,30.25,WNW,299,0.0,9.0,27,0.00,,,0.00,VWS V14.01,2013-02-09 21:05:00,
2013-02-09 16:10:00,49.1,16.6,30.25,NW,306,0.0,9.0,27,0.00,,,0.00,VWS V14.01,2013-02-09 21:10:00,
2013-02-09 16:15:00,49.6,17.0,30.25,NW,306,0.0,9.0,27,0.00,,,0.00,VWS V14.01,2013-02-09 21:15:00,
2013-02-09 16:20:00,48.9,16.4,30.25,NW,306,0.0,9.0,27,0.00,,,0.00,VWS V14.01,2013-02-09 21:20:00,
2013-02-09 16:25:00,48.8,17.2,30.25,NW,306,0.0,9.0,28,0.00,,,0.00,VWS V14.01,2013-02-09 21:25:00,
2013-02-09 16:30:00,48.6,16.1,30.25,NW,305,0.0,9.0,27,0.00,,,0.00,VWS V14.01,2013-02-09 21:30:00,
2013-02-09 16:35:00,48.6,16.1,30.25,NNW,343,2.0,9.0,27,0.00,,,0.00,VWS V14.01,2013-02-09 21:35:00,
2013-02-09 16:40:00,48.9,17.2,30.25,NNW,343,0.0,9.0,28,0.00,,,0.00,VWS V14.01,2013-02-09 21:40:00,
2013-02-09 16:45:00,48.8,17.2,30.25,NNW,343,0.0,9.0,28,0.00,,,0.00,VWS V14.01,2013-02-09 21:45:00,
2013-02-09 16:50:00,49.1,16.6,30.25,NNW,343,0.0,9.0,27,0.00,,,0.00,VWS V14.01,2013-02-09 21:50:00,
2013-02-09 16:55:00,48.9,16.4,30.25,NNW,343,0.0,9.0,27,0.00,,,0.00,VWS V14.01,2013-02-09 21:55:00,
2013-02-09 17:00:00,48.5,17.7,30.25,NNW,343,0.0,9.0,29,0.00,,,0.00,VWS V14.01,2013-02-09 22:00:00,
2013-02-09 17:05:00,48.2,18.2,30.25,NNW,343,0.0,9.0,30,0.00,,,0.00,VWS V14.01,2013-02-09 22:05:00,
2013-02-09 17:11:00,47.6,16.1,30.25,NNW,343,0.0,9.0,28,0.00,,,0.00,VWS V14.01,2013-02-09 22:11:00,
2013-02-09 17:16:00,47.4,16.8,30.25,NNW,343,0.0,9.0,29,0.00,,,0.00,VWS V14.01,2013-02-09 22:16:00,
2013-02-09 17:21:00,47.6,18.5,30.25,NNW,343,0.0,9.0,31,0.00,,,0.00,VWS V14.01,2013-02-09 22:21:00,
2013-02-09 17:26:00,47.7,20.0,30.25,NNW,343,0.0,9.0,33,0.00,,,0.00,VWS V14.01,2013-02-09 22:26:00,
2013-02-09 17:31:00,47.1,21.5,30.25,NNW,343,0.0,9.0,36,0.00,,,0.00,VWS V14.01,2013-02-09 22:31:00,
2013-02-09 17:36:00,46.7,23.1,30.25,NNW,343,1.0,9.0,39,0.00,,,0.00,VWS V14.01,2013-02-09 22:36:00,
2013-02-09 17:41:00,45.8,24.0,30.25,NNW,343,0.0,9.0,42,0.00,,,0.00,VWS V14.01,2013-02-09 22:41:00,
2013-02-09 17:46:00,44.9,22.1,30.25,NNW,343,0.0,9.0,40,0.00,,,0.00,VWS V14.01,2013-02-09 22:46:00,
2013-02-09 17:51:00,44.3,26.4,30.25,NNW,343,0.0,9.0,49,0.00,,,0.00,VWS V14.01,2013-02-09 22:51:00,
2013-02-09 17:56:00,43.3,25.9,30.25,NNW,343,0.0,9.0,50,0.00,,,0.00,VWS V14.01,2013-02-09 22:56:00,
2013-02-09 18:01:00,42.8,25.9,30.26,NNW,343,0.0,9.0,51,0.00,,,0.00,VWS V14.01,2013-02-09 23:01:00,
2013-02-09 18:06:00,41.9,26.5,30.26,NNW,343,0.0,9.0,54,0.00,,,0.00,VWS V14.01,2013-02-09 23:06:00,
2013-02-09 18:11:00,41.1,22.9,30.26,NNW,343,0.0,9.0,48,0.00,,,0.00,VWS V14.01,2013-02-09 23:11:00,
2013-02-09 18:17:00,40.3,21.7,30.27,NNW,343,0.0,9.0,47,0.00,,,0.00,VWS V14.01,2013-02-09 23:17:00,
2013-02-09 18:22:00,39.6,21.5,30.27,NNW,343,0.0,9.0,48,0.00,,,0.00,VWS V14.01,2013-02-09 23:22:00,
2013-02-09 18:27:00,39.1,22.0,30.27,NNW,343,0.0,9.0,50,0.00,,,0.00,VWS V14.01,2013-02-09 23:27:00,
2013-02-09 18:32:00,38.3,22.2,30.27,NNW,343,0.0,9.0,52,0.00,,,0.00,VWS V14.01,2013-02-09 23:32:00,
2013-02-09 18:37:00,37.8,21.8,30.27,NNW,343,0.0,9.0,52,0.00,,,0.00,VWS V14.01,2013-02-09 23:37:00,
2013-02-09 18:42:00,37.3,22.6,30.27,NNW,343,0.0,9.0,55,0.00,,,0.00,VWS V14.01,2013-02-09 23:42:00,
2013-02-09 18:47:00,36.9,23.1,30.27,NNW,343,0.0,9.0,57,0.00,,,0.00,VWS V14.01,2013-02-09 23:47:00,
2013-02-09 18:52:00,36.3,21.7,30.27,NNW,343,0.0,9.0,55,0.00,,,0.00,VWS V14.01,2013-02-09 23:52:00,
2013-02-09 18:57:00,35.9,21.8,30.27,NNW,343,0.0,9.0,56,0.00,,,0.00,VWS V14.01,2013-02-09 23:57:00,
2013-02-09 19:02:00,35.5,21.4,30.27,NNW,343,0.0,9.0,56,0.00,,,0.00,VWS V14.01,2013-02-10 00:02:00,
2013-02-09 19:07:00,35.0,21.3,30.27,NNW,343,0.0,9.0,57,0.00,,,0.00,VWS V14.01,2013-02-10 00:07:00,
2013-02-09 19:12:00,34.9,22.0,30.27,NNW,343,0.0,9.0,59,0.00,,,0.00,VWS V14.01,2013-02-10 00:12:00,
2013-02-09 19:17:00,34.7,21.9,30.28,NNW,343,0.0,9.0,59,0.00,,,0.00,VWS V14.01,2013-02-10 00:17:00,
2013-02-09 19:22:00,34.3,20.7,30.28,NNW,343,0.0,9.0,57,0.00,,,0.00,VWS V14.01,2013-02-10 00:22:00,
2013-02-09 19:28:00,34.1,20.5,30.28,NNW,343,0.0,9.0,57,0.00,,,0.00,VWS V14.01,2013-02-10 00:28:00,
2013-02-09 19:33:00,33.8,20.6,30.29,NNW,343,0.0,9.0,58,0.00,,,0.00,VWS V14.01,2013-02-10 00:33:00,
2013-02-09 19:38:00,33.8,20.2,30.29,NNW,343,0.0,9.0,57,0.00,,,0.00,VWS V14.01,2013-02-10 00:38:00,
2013-02-09 19:43:00,33.7,20.5,30.29,NNW,343,0.0,9.0,58,0.00,,,0.00,VWS V14.01,2013-02-10 00:43:00,
2013-02-09 19:48:00,33.4,19.8,30.29,NNW,343,0.0,9.0,57,0.00,,,0.00,VWS V14.01,2013-02-10 00:48:00,
2013-02-09 19:53:00,33.2,20.0,30.29,NNW,343,0.0,9.0,58,0.00,,,0.00,VWS V14.01,2013-02-10 00:53:00,
2013-02-09 19:58:00,33.1,20.4,30.29,NNW,343,0.0,9.0,59,0.00,,,0.00,VWS V14.01,2013-02-10 00:58:00,
2013-02-09 20:03:00,33.1,20.4,30.28,NNW,343,0.0,9.0,59,0.00,,,0.00,VWS V14.01,2013-02-10 01:03:00,
2013-02-09 20:08:00,32.9,20.5,30.28,NNW,343,0.0,9.0,60,0.00,,,0.00,VWS V14.01,2013-02-10 01:08:00,
2013-02-09 20:13:00,32.8,20.9,30.28,NNW,343,0.0,9.0,61,0.00,,,0.00,VWS V14.01,2013-02-10 01:13:00,
2013-02-09 20:18:00,32.8,20.5,30.28,NNW,343,0.0,9.0,60,0.00,,,0.00,VWS V14.01,2013-02-10 01:18:00,
2013-02-09 20:23:00,32.8,21.6,30.28,NNW,343,0.0,9.0,63,0.00,,,0.00,VWS V14.01,2013-02-10 01:23:00,
2013-02-09 20:29:00,32.7,21.1,30.28,NNW,343,0.0,9.0,62,0.00,,,0.00,VWS V14.01,2013-02-10 01:29:00,
2013-02-09 20:34:00,32.5,20.9,30.29,NNW,343,0.0,9.0,62,0.00,,,0.00,VWS V14.01,2013-02-10 01:34:00,
2013-02-09 20:39:00,32.5,20.9,30.29,NNW,343,1.0,9.0,62,0.00,,,0.00,VWS V14.01,2013-02-10 01:39:00,
2013-02-09 20:44:00,32.5,21.7,30.29,NNW,343,0.0,9.0,64,0.00,,,0.00,VWS V14.01,2013-02-10 01:44:00,
2013-02-09 20:49:00,32.7,22.2,30.27,NNW,343,2.0,9.0,65,0.00,,,0.00,VWS V14.01,2013-02-10 01:49:00,
2013-02-09 20:54:00,32.9,22.4,30.27,NNW,343,0.0,9.0,65,0.00,,,0.00,VWS V14.01,2013-02-10 01:54:00,
2013-02-09 20:59:00,33.5,22.3,30.27,NNW,343,0.0,9.0,63,0.00,,,0.00,VWS V14.01,2013-02-10 01:59:00,
2013-02-09 21:04:00,34.3,21.9,30.26,NNW,343,0.0,9.0,60,0.00,,,0.00,VWS V14.01,2013-02-10 02:04:00,
2013-02-09 21:09:00,34.9,21.6,30.26,NNW,343,0.0,9.0,58,0.00,,,0.00,VWS V14.01,2013-02-10 02:09:00,
2013-02-09 21:14:00,35.3,22.4,30.26,NNW,343,1.0,9.0,59,0.00,,,0.00,VWS V14.01,2013-02-10 02:14:00,
2013-02-09 21:19:00,35.6,22.7,30.26,NNW,343,0.0,9.0,59,0.00,,,0.00,VWS V14.01,2013-02-10 02:19:00,
2013-02-09 21:24:00,36.0,22.7,30.26,West,271,0.0,9.0,58,0.00,,,0.00,VWS V14.01,2013-02-10 02:24:00,
2013-02-09 21:30:00,36.3,23.0,30.26,West,271,0.0,9.0,58,0.00,,,0.00,VWS V14.01,2013-02-10 02:30:00,
2013-02-09 21:35:00,36.3,22.5,30.26,SW,215,0.0,9.0,57,0.00,,,0.00,VWS V14.01,2013-02-10 02:35:00,
2013-02-09 21:40:00,36.3,22.1,30.26,SW,215,0.0,9.0,56,0.00,,,0.00,VWS V14.01,2013-02-10 02:40:00,
2013-02-09 21:45:00,36.0,21.8,30.26,SW,215,0.0,9.0,56,0.00,,,0.00,VWS V14.01,2013-02-10 02:45:00,
2013-02-09 21:50:00,35.8,22.1,30.26,SW,215,0.0,9.0,57,0.00,,,0.00,VWS V14.01,2013-02-10 02:50:00,
2013-02-09 21:55:00,35.5,21.8,30.26,SW,215,0.0,9.0,57,0.00,,,0.00,VWS V14.01,2013-02-10 02:55:00,
2013-02-09 22:00:00,35.5,22.2,30.26,East,101,2.0,9.0,58,0.00,,,0.00,VWS V14.01,2013-02-10 03:00:00,
2013-02-09 22:05:00,35.8,22.1,30.26,East,95,0.0,9.0,57,0.00,,,0.00,VWS V14.01,2013-02-10 03:05:00,
2013-02-09 22:10:00,35.8,21.2,30.26,East,95,0.0,9.0,55,0.00,,,0.00,VWS V14.01,2013-02-10 03:10:00,
2013-02-09 22:15:00,35.5,22.2,30.25,North,355,0.0,9.0,58,0.00,,,0.00,VWS V14.01,2013-02-10 03:15:00,
2013-02-09 22:20:00,35.3,22.0,30.25,North,355,1.0,9.0,58,0.00,,,0.00,VWS V14.01,2013-02-10 03:20:00,
2013-02-09 22:25:00,35.0,21.7,30.25,North,355,0.0,9.0,58,0.00,,,0.00,VWS V14.01,2013-02-10 03:25:00,
2013-02-09 22:30:00,34.9,22.8,30.24,North,355,1.0,9.0,61,0.00,,,0.00,VWS V14.01,2013-02-10 03:30:00,
2013-02-09 22:36:00,34.6,21.0,30.24,North,355,0.0,9.0,57,0.00,,,0.00,VWS V14.01,2013-02-10 03:36:00,
2013-02-09 22:41:00,34.7,19.3,30.24,North,355,0.0,9.0,53,0.00,,,0.00,VWS V14.01,2013-02-10 03:41:00,
2013-02-09 22:46:00,35.3,20.8,30.24,North,355,2.0,9.0,55,0.00,,,0.00,VWS V14.01,2013-02-10 03:46:00,
2013-02-09 22:51:00,35.0,20.0,30.24,North,355,0.0,9.0,54,0.00,,,0.00,VWS V14.01,2013-02-10 03:51:00,
2013-02-09 22:56:00,35.0,20.0,30.24,North,355,0.0,9.0,54,0.00,,,0.00,VWS V14.01,2013-02-10 03:56:00,
2013-02-09 23:01:00,35.0,20.0,30.24,North,355,0.0,9.0,54,0.00,,,0.00,VWS V14.01,2013-02-10 04:01:00,
2013-02-09 23:06:00,35.0,21.3,30.24,North,355,2.0,9.0,57,0.00,,,0.00,VWS V14.01,2013-02-10 04:06:00,
2013-02-09 23:11:00,35.3,20.3,30.24,SSE,153,0.0,9.0,54,0.00,,,0.00,VWS V14.01,2013-02-10 04:11:00,
2013-02-09 23:16:00,35.2,19.8,30.23,SSE,153,0.0,9.0,53,0.00,,,0.00,VWS V14.01,2013-02-10 04:16:00,
2013-02-09 23:21:00,35.3,19.9,30.23,SSE,153,0.0,9.0,53,0.00,,,0.00,VWS V14.01,2013-02-10 04:21:00,
2013-02-09 23:26:00,35.5,19.6,30.23,SSE,153,0.0,9.0,52,0.00,,,0.00,VWS V14.01,2013-02-10 04:26:00,
2013-02-09 23:31:00,35.5,19.2,30.22,SSE,153,0.0,9.0,51,0.00,,,0.00,VWS V14.01,2013-02-10 04:31:00,
2013-02-09 23:36:00,35.5,17.8,30.22,SSE,153,0.0,9.0,48,0.00,,,0.00,VWS V14.01,2013-02-10 04:36:00,
2013-02-09 23:41:00,35.8,17.1,30.22,SSE,153,0.0,9.0,46,0.00,,,0.00,VWS V14.01,2013-02-10 04:41:00,
2013-02-09 23:46:00,35.9,18.1,30.22,SSE,153,1.0,9.0,48,0.00,,,0.00,VWS V14.01,2013-02-10 04:46:00,
2013-02-09 23:52:00,35.9,19.1,30.22,SSE,153,0.0,9.0,50,0.00,,,0.00,VWS V14.01,2013-02-10 04:52:00,
2013-02-09 23:57:00,35.8,20.4,30.22,SSE,153,0.0,9.0,53,0.00,,,0.00,VWS V14.01,2013-02-10 04:57:00,